VSV809 EPWA-EDDH

Flight info

Callsign VSV809
Flight time N/A
Altitude 36000
Route LOLSI T174 INDIG ALUKA VIBIS L619 BUMIL M748 RARUP RARUP6A
Aircraft B738/M-SDE2E3FGHIRWXY/LB1

Departure

Time 2026-04-30 20:11
Airport Warsaw Chopin Airport (EPWA)

Arrival

Time N/A
Airport Hamburg Helmut Schmidt Airport (EDDH)
Time Latitude Longitude Altitude Speed Heading
2026-04-30 19:49 52.16953 20.97178 335 ft 0 kts 69°
2026-04-30 20:01 52.16941 20.97126 330 ft 7 kts 69°
2026-04-30 20:01 52.16931 20.97079 331 ft 5 kts 84°
2026-04-30 20:01 52.16937 20.97042 332 ft 3 kts 137°
2026-04-30 20:02 52.16955 20.97020 333 ft 0 kts 151°
2026-04-30 20:03 52.16951 20.97023 335 ft 2 kts 150°
2026-04-30 20:03 52.16951 20.97024 335 ft 0 kts 150°
2026-04-30 20:07 52.16950 20.97025 335 ft 1 kts 151°
2026-04-30 20:07 52.16877 20.97090 333 ft 10 kts 150°
2026-04-30 20:08 52.16804 20.97154 334 ft 13 kts 152°
2026-04-30 20:08 52.16712 20.97233 332 ft 16 kts 152°
2026-04-30 20:08 52.16625 20.97309 333 ft 8 kts 152°
2026-04-30 20:08 52.16581 20.97360 331 ft 8 kts 128°
2026-04-30 20:09 52.16555 20.97441 334 ft 9 kts 115°
2026-04-30 20:09 52.16522 20.97558 333 ft 12 kts 115°
2026-04-30 20:09 52.16442 20.97793 333 ft 12 kts 147°
2026-04-30 20:10 52.16315 20.97684 332 ft 11 kts 263°
2026-04-30 20:10 52.16320 20.97632 332 ft 0 kts 290°
2026-04-30 20:11 52.16764 20.96047 334 ft 154 kts 294°
2026-04-30 20:11 52.17285 20.94227 633 ft 197 kts 295°
2026-04-30 20:11 52.17852 20.92294 2024 ft 176 kts 296°
2026-04-30 20:12 52.18714 20.88907 4022 ft 183 kts 295°
2026-04-30 20:12 52.19004 20.86671 4309 ft 224 kts 269°
2026-04-30 20:12 52.18721 20.83966 4660 ft 260 kts 262°
2026-04-30 20:13 52.18239 20.81036 5579 ft 270 kts 262°
2026-04-30 20:13 52.18340 20.78050 6656 ft 263 kts 295°
2026-04-30 20:13 52.19040 20.75288 7695 ft 267 kts 296°
2026-04-30 20:13 52.19618 20.72399 8639 ft 275 kts 289°
2026-04-30 20:14 52.19619 20.69213 9548 ft 294 kts 257°
2026-04-30 20:14 52.18811 20.66102 10473 ft 304 kts 249°
2026-04-30 20:14 52.17941 20.62805 10793 ft 330 kts 253°
2026-04-30 20:14 52.17302 20.59864 10990 ft 351 kts 256°
2026-04-30 20:15 52.16642 20.56564 11520 ft 362 kts 256°
2026-04-30 20:15 52.15828 20.52623 12307 ft 369 kts 255°
2026-04-30 20:15 52.15247 20.48556 13114 ft 367 kts 275°
2026-04-30 20:15 52.15738 20.44631 13913 ft 359 kts 295°
2026-04-30 20:16 52.16616 20.40757 14261 ft 359 kts 295°
2026-04-30 20:16 52.17072 20.36687 14338 ft 378 kts 271°
2026-04-30 20:16 52.16618 20.32417 14381 ft 387 kts 261°
2026-04-30 20:16 52.16035 20.28115 14369 ft 389 kts 265°
2026-04-30 20:17 52.16028 20.23817 14374 ft 381 kts 285°
2026-04-30 20:17 52.16658 20.19650 14372 ft 379 kts 293°
2026-04-30 20:17 52.17446 20.15540 14369 ft 382 kts 292°
2026-04-30 20:17 52.17932 20.11244 14338 ft 396 kts 273°
2026-04-30 20:18 52.17402 20.06789 14389 ft 405 kts 257°
2026-04-30 20:18 52.16531 20.02395 14371 ft 408 kts 256°
2026-04-30 20:18 52.15934 19.97911 14332 ft 402 kts 276°
2026-04-30 20:18 52.16641 19.93679 14397 ft 382 kts 304°
2026-04-30 20:19 52.18028 19.90007 14375 ft 381 kts 308°